Location: Great Canfield
(51.8333°N, 0.3167°E)
Time: 00:54:29
(UTC+00:00)

Daily predictions for brighter satellites

Satellite Brightness Start Highest point End
(mag) Time Altitude Azimuth Time Altitude Azimuth Time Altitude Azimuth
H-2A R/B 4.4 00:02:32 10° N 00:06:22 40° WNW 00:08:45 20° SW
Cosmos 2322 Rocket 3.6 00:01:50 10° WSW 00:06:56 34° NW 00:12:03 10° NNE
USA 306 4.1 00:07:12 24° SE 00:07:12 24° SE 00:10:26 10° E
Cosmos 1844 Rocket 4.4 00:03:33 10° WNW 00:07:16 18° W 00:09:35 14° SW
Lacrosse 5 4.0 00:07:00 11° SE 00:07:36 11° ESE 00:09:03 10° ESE
Cosmos 371 Rocket 4.2 00:06:52 25° SSE 00:08:54 36° ESE 00:13:21 10° NE
Cosmos 1461 3.5 00:05:14 10° NW 00:09:07 39° WSW 00:10:09 33° SSW
SL-16 R/B 4.4 00:04:29 10° ESE 00:09:29 26° NE 00:14:30 10° N
Cosmos 2322 3.7 00:07:23 23° SSW 00:11:06 85° WNW 00:16:53 10° NNE
USA 307 4.2 00:11:14 23° SE 00:11:14 23° SE 00:14:26 10° E
Cosmos 2333 Rocket 2.5 00:07:16 18° SW 00:11:31 67° NW 00:17:13 10° NNE
ATLAS CENTAUR R/B 3.1 00:09:12 10° WNW 00:12:53 22° WSW 00:13:49 20° SW
Cosmos 220 Rocket 3.8 00:11:12 35° SSW 00:12:55 77° ESE 00:17:08 10° NNE
Cosmos 1709 Rocket 4.4 00:08:56 10° N 00:14:59 56° ENE 00:19:32 18° SSE
ASTEX 1 3.3 00:10:35 10° N 00:15:31 90° W 00:18:02 30° S
SL-19 R/B 3.9 00:19:09 46° SW 00:19:36 52° WSW 00:22:27 10° NNW
Cosmos 1386 Rocket 4.4 00:14:27 10° N 00:20:30 88° W 00:24:14 25° S
NOSS 2-2 (C) 4.2 00:16:38 10° NW 00:21:28 67° SW 00:26:47 16° SSE
USA 267 3.5 00:17:02 19° SSE 00:21:40 49° SW 00:28:01 10° WNW
USA 229 DEB 3.9 00:17:05 10° NW 00:24:18 66° SW 00:30:40 16° SSE
USA 229 3.9 00:17:11 10° NW 00:24:24 67° SW 00:30:48 16° SSE
Cosmos 1674 Rocket 3.5 00:23:08 33° S 00:25:03 83° E 00:29:25 10° NNE
ATLAS 2AS CENTAUR R/B 4.4 00:18:54 10° W 00:25:55 37° NNW 00:32:35 10° NE
S3M 4.1 00:24:09 25° S 00:28:06 76° E 00:34:28 10° NNE
Cosmos 2219 Rocket 2.5 00:26:27 18° SW 00:30:35 62° NW 00:36:10 10° NNE
Cosmos 2221 Rocket 3.8 00:28:33 29° SSW 00:30:40 63° WNW 00:35:04 10° N
Cosmos 1553 Rocket 4.1 00:28:15 24° SSW 00:32:02 71° WNW 00:38:17 10° N
Cosmos 494 Rocket 4.2 00:29:26 10° NNW 00:34:24 51° WSW 00:36:50 28° SSW
Cosmos 1048 Rocket 4.4 00:30:04 10° NW 00:35:02 47° WSW 00:37:22 28° SSW
Cosmos 2150 Rocket 4.1 00:32:32 28° S 00:35:14 63° ESE 00:40:20 10° NNE
Meteor 1-16 Rocket 4.4 00:30:03 10° NNW 00:35:57 68° W 00:39:24 25° S
CZ-2D R/B 3.9 00:32:49 10° NE 00:36:56 22° E 00:40:53 10° SE
Cosmos 1707 4.2 00:35:39 19° WSW 00:37:35 29° WNW 00:41:01 10° N
MOZ.5/SAFIR/RUBIN 5/SL-8 4.3 00:34:54 17° SE 00:38:26 55° ENE 00:43:06 10° N
ERS-2 4.0 00:36:14 10° N 00:39:09 23° WNW 00:41:16 14° WSW
Cosmos 1455 Rocket 3.9 00:34:55 10° N 00:39:15 46° ENE 00:42:28 17° SE
Cosmos 1378 Rocket 3.6 00:37:53 30° SSW 00:39:59 75° W 00:44:28 10° N
USA 308 3.6 00:40:45 31° SSE 00:41:37 34° SE 00:45:25 10° ENE
Cosmos 1300 2.7 00:38:23 10° N 00:42:12 78° E 00:43:56 30° SSE
Okean 2 4.3 00:42:41 23° SW 00:44:41 38° WNW 00:48:33 10° N
USA 290 2.9 00:43:29 29° WSW 00:44:44 46° WNW 00:47:53 10° NNE
Cosmos 1125 Rocket 3.5 00:43:32 27° SSW 00:46:25 79° ESE 00:51:39 10° NNE
NOSS 0 Rocket 4.0 00:45:01 24° SSW 00:48:56 76° ESE 00:55:12 10° NE
Cosmos 1238 Rocket 3.6 00:47:39 10° NW 00:50:05 23° W 00:50:31 22° WSW
NOSS 3-1 (A) 4.5 00:43:46 10° NW 00:50:44 44° WSW 00:56:19 20° S
CZ-4C R/B 3.7 00:48:20 10° NW 00:54:52 36° WSW 00:59:24 21° SSW
SL-14 R/B 3.2 00:53:24 32° SSW 00:55:05 82° W 00:58:59 10° N
ERBS 3.0 00:55:13 30° SE 00:55:16 30° SE 00:58:01 10° ENE
PSLV R/B 4.4 00:54:40 10° N 00:58:49 44° WNW 01:01:26 21° SW
Cosmos 1975 Rocket 3.7 00:56:40 22° SSE 00:59:16 49° E 01:03:36 10° NNE
Cosmos 2237 Rocket 2.3 00:56:44 25° SSW 01:00:11 71° ESE 01:05:53 10° NNE
Cosmos 1025 Rocket 3.9 01:00:08 20° SSE 01:02:46 42° E 01:06:50 10° NNE
Resurs 1-4 Rocket 3.2 00:58:17 10° NNE 01:03:06 35° E 01:07:01 14° SSE
USA 305 3.0 01:02:25 29° SSW 01:04:15 51° SSE 01:08:19 10° ENE
COSMOS 2428 3.3 00:59:51 15° SW 01:04:23 52° NW 01:09:58 10° NNE
Cosmos 405 Rocket 3.5 01:03:21 25° SW 01:05:05 40° WNW 01:08:44 10° N
Gblst 52 Del rocket 4.2 00:59:51 10° W 01:05:56 88° S 01:11:30 10° E
Cosmos 1745 Rocket 4.5 01:00:01 10° NNW 01:05:56 46° W 01:09:40 22° SSW
SME Rocket 3.4 01:03:28 19° SSE 01:06:26 82° ENE 01:12:03 10° NNW
Cosmos 1437 Rocket 3.8 01:04:23 10° NNW 01:07:41 29° W 01:08:52 24° SW
Cosmos 332 Rocket 3.9 01:08:19 25° S 01:11:03 66° ESE 01:15:49 10° NNE
Cosmos 2360 Rocket 4.3 01:07:26 10° W 01:11:50 23° NW 01:16:17 10° NNE
Cosmos 1943 Rocket 2.3 01:06:47 10° NNW 01:12:31 80° ENE 01:18:12 10° SSE
Cosmos 1626 3.8 01:11:57 16° WSW 01:13:48 23° WNW 01:16:47 10° NNW
Lacrosse 5 rocket 3.1 01:14:37 15° SSE 01:15:43 17° SE 01:18:21 10° E
ADEOS II 3.8 01:12:27 10° NE 01:16:50 26° E 01:21:10 10° SSE
GP-B 3.1 01:12:25 10° N 01:16:53 75° W 01:19:29 24° SSW
Cosmos 2297 4.0 01:12:31 10° NNW 01:18:18 72° ENE 01:24:02 10° SE
Cosmos 2298 Rocket 4.3 01:15:02 20° SW 01:18:38 62° WNW 01:23:56 10° NNE
Cosmos 1953 3.6 01:15:22 10° NNW 01:18:49 28° W 01:20:22 21° SW
Cosmos 1867 4.2 01:14:21 12° WSW 01:19:22 53° NW 01:24:46 10° NE
Thor Agena Rocket 3.6 01:15:22 10° NNE 01:20:41 80° ESE 01:24:18 21° S
Cosmos 1544 Rocket 3.8 01:21:24 10° N 01:25:50 69° ENE 01:29:31 14° SSE
USA 215 3.6 01:20:49 10° ENE 01:27:18 67° NNW 01:33:48 10° W
Cosmos 2278 Rocket 3.2 01:23:14 10° NW 01:28:00 28° WSW 01:30:39 20° SW
Helios 1A 4.5 01:27:15 10° SE 01:31:05 36° ENE 01:34:59 10° N
NPP 4.2 01:31:48 10° NNE 01:37:07 53° E 01:41:35 14° S
MOS 1 Rocket 3.6 01:33:41 10° SSE 01:37:52 57° ENE 01:42:09 10° N
EO 1 Delta rocket 4.2 01:33:47 10° N 01:38:21 58° WNW 01:41:51 19° SSW
Cosmos 2369 Rocket 2.8 01:36:02 10° NNW 01:41:35 58° NE 01:47:06 10° SE
USA 306 2.8 01:42:53 16° WSW 01:46:13 79° SSE 01:50:25 10° ENE
SL-16 R/B 2.5 01:44:11 17° S 01:48:28 61° ESE 01:54:04 10° NE
Cosmos 371 Rocket 4.3 01:45:30 14° WSW 01:49:18 38° NW 01:53:51 10° NNE
Lacrosse 5 2.3 01:46:10 19° SSW 01:49:32 48° SE 01:54:26 10° ENE
USA 307 2.8 01:46:57 16° WSW 01:50:17 76° SSE 01:54:29 10° ENE
Meteor 1-28 Rocket 3.9 01:47:14 10° SSE 01:50:52 54° ENE 01:54:32 10° N
SL-16 R/B 2.5 01:46:17 10° SSE 01:52:30 79° WSW 01:58:48 10° NNW
Cosmos 1980 4.2 01:47:57 14° SW 01:52:37 53° NW 01:58:10 10° NNE
Cosmos 2074 Rocket 4.0 01:46:37 10° NNW 01:52:56 80° W 01:59:10 10° S
Cosmos 1269 Rocket 4.5 01:51:31 10° NW 01:56:31 43° WSW 02:00:37 14° S
Cosmos 2333 Rocket 4.3 01:52:44 10° W 01:56:55 20° NNW 02:01:06 10° NNE
Cosmos 304 Rocket 4.4 01:54:13 16° SW 01:57:54 47° WNW 02:02:35 10° NNE
Cosmos 2084 Rocket 3.1 01:56:07 20° SW 01:58:43 80° SE 02:02:31 10° NE
AQUA 4.1 01:55:57 10° NNE 02:00:42 64° ESE 02:04:57 13° S
Cosmos 1455 2.2 02:02:00 10° NNW 02:05:40 58° W 02:08:34 15° S
NOSS 3 (A) 4.3 02:07:27 25° W 02:08:03 36° NW 02:09:49 10° NNE
Cosmos 2184 Rocket 4.1 02:02:46 10° NNW 02:08:59 65° W 02:15:06 10° S
Cosmos 1610 Rocket 4.5 02:05:43 10° N 02:11:54 88° W 02:18:03 10° S
Meteor 1-24 Rocket 3.8 02:07:37 15° SSW 02:12:13 64° WNW 02:17:37 10° N
Cosmos 407 Rocket 4.4 02:07:17 10° NNW 02:12:33 54° ENE 02:17:43 10° SE
Cosmos 2228 3.3 02:08:37 10° N 02:13:01 69° ENE 02:17:19 10° SSE
Cosmos 1271 Rocket 2.6 02:09:55 10° NNW 02:13:44 83° W 02:17:36 10° S
COSMOS 2455 3.4 02:08:44 13° SSW 02:13:59 53° ESE 02:19:50 10° NE
Cosmos 2219 Rocket 4.4 02:11:46 10° WNW 02:15:42 19° NNW 02:19:39 10° NNE
Cosmos 1455 Rocket 4.5 02:13:16 10° NW 02:16:48 23° W 02:19:33 14° SW
CZ-2D R/B 2.3 02:12:08 10° NNE 02:17:30 69° WNW 02:22:12 13° SSW
Iridium 82 4.5 02:16:22 12° S 02:19:35 89° E 02:23:08 10° N
Cosmos 1140 Rocket 4.0 02:15:34 10° NNW 02:20:49 63° ENE 02:26:01 10° SE
USA 308 2.9 02:16:48 10° WSW 02:20:59 84° NNW 02:25:12 10° ENE
MSX 4.3 02:18:49 10° NNE 02:24:31 58° ESE 02:30:12 10° S
Cosmos 1536 Rocket 3.6 02:25:14 12° SSW 02:29:18 74° WNW 02:33:43 10° N
SAR-Lupe-2 3.6 02:25:45 10° N 02:29:21 70° WNW 02:32:32 13° SSW
Cosmos 292 Rocket 3.9 02:25:27 11° SSW 02:29:59 73° ESE 02:34:47 10° NNE
ERBS 2.7 02:27:30 10° W 02:30:30 52° NNW 02:33:32 10° ENE
Genesis I 3.3 02:34:47 10° NW 02:38:53 87° SW 02:42:55 10° SE
Cosmos 1025 Rocket 4.5 02:37:01 10° WSW 02:40:32 24° WNW 02:44:06 10° NNW
Cosmos 1943 4.0 02:37:10 10° S 02:42:34 46° ESE 02:47:59 10° NE
Meteor 2-1 Rocket 4.3 02:36:55 10° NNW 02:42:45 88° ENE 02:48:25 10° SSE
Resurs 1-4 Rocket 2.8 02:38:03 10° N 02:43:01 43° WNW 02:47:58 10° SW
USA 305 3.1 02:39:37 10° W 02:43:47 70° N 02:47:59 10° ENE
DEBRIS 4.0 02:30:33 10° W 02:43:51 66° SSW 02:47:34 10° ESE
Cosmos 2237 Rocket 3.6 02:39:49 10° WSW 02:44:47 30° NW 02:49:47 10° NNE
Helios 1B rocket 3.9 02:42:24 10° NNE 02:46:07 33° E 02:49:48 10° SSE
Nadezhda 1 Rocket 4.2 02:40:10 10° SSW 02:46:29 67° WNW 02:52:45 10° N
Cosmos 1606 Rocket 3.5 02:44:30 10° NNW 02:48:57 80° W 02:53:19 10° S
Cosmos 1328 4.4 02:45:56 10° S 02:49:49 57° E 02:53:46 10° NNE
Lacrosse 5 rocket 1.3 02:50:15 10° SW 02:54:10 78° SSE 02:58:20 10° ENE
Cosmos 1943 Rocket 3.5 02:51:29 10° NW 02:55:38 21° W 02:59:46 10° SSW
IDEFIX/ARIANE 42P 2.7 02:50:40 10° N 02:55:56 68° WNW 03:01:09 10° SSW
ADEOS II 2.4 02:51:42 10° N 02:56:51 57° WNW 03:01:59 10° SW
Gblst 52 Del rocket 4.1 02:51:52 10° W 02:57:36 69° SSW 03:03:02 10° ESE
Cosmos 2263 4.3 02:57:21 10° NW 03:02:54 56° WSW 03:08:27 10° S
Cosmos 1703 3.7 03:00:24 10° SSW 03:04:13 47° WNW 03:08:02 10° N
COSMOS 2441 4.4 03:00:14 10° NNE 03:05:09 84° WNW 03:09:59 10° SSW
EO 1 Del DPAF 3.7 03:03:07 10° N 03:06:27 42° WNW 03:09:46 10° SW
Helios 1A 4.0 03:02:56 10° SSW 03:06:38 29° W 03:10:23 10° NW
IRS-1D 3.7 03:02:39 10° NNE 03:08:02 84° WNW 03:13:20 10° SSW
Cosmos 2366 rocket 4.0 03:03:45 10° N 03:09:56 87° W 03:16:08 10° S
USA 215 4.0 03:03:35 10° E 03:09:58 58° N 03:16:22 10° WNW
BREEZE-M DEB (TANK) 3.4 03:01:46 10° W 03:10:25 69° S 03:13:26 10° E
Cosmos 2251 Rocket 4.1 03:05:57 10° NW 03:10:44 37° WSW 03:15:32 10° S
Cosmos 2341 Rocket 4.2 03:07:14 10° NNW 03:13:32 62° W 03:19:48 10° S
